Time,TemperatureF,DewpointF,PressureIn,WindDirection,WindDirectionDegrees,WindSpeedMPH,WindSpeedGustMPH,Humidity,HourlyPrecipIn,Conditions,Clouds,dailyrainin,SoftwareType,DateUTC
2013-05-07 00:03:00,50.0,49.0,29.93,SW,225,0.0,0.0,96,0.00,,,0.25,,2013-05-07 04:03:00,
2013-05-07 00:12:00,50.0,49.0,29.93,SW,225,0.0,0.0,96,0.00,,,0.25,,2013-05-07 04:12:00,
2013-05-07 00:23:00,50.0,49.0,29.92,SW,225,0.0,0.0,96,0.00,,,0.12,,2013-05-07 04:23:00,
2013-05-07 00:33:00,50.0,49.0,29.92,SW,225,0.0,0.0,97,0.00,,,0.12,,2013-05-07 04:33:00,
2013-05-07 00:42:00,50.0,49.0,29.92,SW,225,0.0,0.0,97,0.00,,,0.12,,2013-05-07 04:42:00,
2013-05-07 00:53:00,51.0,50.0,29.92,SW,225,0.0,0.0,97,0.00,,,0.12,,2013-05-07 04:53:00,
2013-05-07 01:02:00,51.0,50.0,29.92,SW,225,0.0,0.0,97,0.00,,,0.12,,2013-05-07 05:02:00,
2013-05-07 01:12:00,51.0,50.0,29.92,SW,225,0.0,0.0,97,0.00,,,0.12,,2013-05-07 05:12:00,
2013-05-07 01:22:00,51.0,50.0,29.93,SW,225,0.0,0.0,97,0.00,,,0.03,,2013-05-07 05:22:00,
2013-05-07 01:32:00,51.0,50.0,29.93,SW,225,0.0,0.0,97,0.00,,,0.03,,2013-05-07 05:32:00,
2013-05-07 01:42:00,51.0,50.0,29.93,SW,225,0.0,0.0,97,0.00,,,0.03,,2013-05-07 05:42:00,
2013-05-07 01:52:00,51.0,50.0,29.93,SW,225,0.0,0.0,97,0.00,,,0.03,,2013-05-07 05:52:00,
2013-05-07 02:02:00,50.0,49.0,29.92,SW,225,0.0,0.0,97,0.00,,,0.03,,2013-05-07 06:02:00,
2013-05-07 02:12:00,50.0,49.0,29.92,SW,225,0.0,0.0,97,0.00,,,0.03,,2013-05-07 06:12:00,
2013-05-07 02:22:00,50.0,49.0,29.91,SW,225,0.0,0.0,97,0.00,,,0.03,,2013-05-07 06:22:00,
2013-05-07 02:32:00,50.0,49.0,29.91,SW,225,0.0,0.0,97,0.00,,,0.03,,2013-05-07 06:32:00,
2013-05-07 02:42:00,50.0,49.0,29.91,SW,225,0.0,0.0,97,0.00,,,0.03,,2013-05-07 06:42:00,
2013-05-07 02:52:00,50.0,49.0,29.91,SW,225,0.0,0.0,97,0.00,,,0.03,,2013-05-07 06:52:00,
2013-05-07 03:02:00,50.0,49.0,29.91,SW,225,0.0,0.0,97,0.00,,,0.03,,2013-05-07 07:02:00,
2013-05-07 03:11:00,50.0,49.0,29.91,SW,225,0.0,0.0,97,0.00,,,0.03,,2013-05-07 07:11:00,
2013-05-07 03:22:00,50.0,49.0,29.90,SW,225,0.0,0.0,97,0.00,,,0.03,,2013-05-07 07:22:00,
2013-05-07 03:32:00,50.0,49.0,29.90,SW,225,0.0,0.0,97,0.00,,,0.03,,2013-05-07 07:32:00,
2013-05-07 03:42:00,50.0,49.0,29.90,SW,225,0.0,0.0,97,0.00,,,0.03,,2013-05-07 07:42:00,
2013-05-07 03:52:00,49.0,48.0,29.90,SW,225,0.0,0.0,97,0.00,,,0.03,,2013-05-07 07:52:00,
2013-05-07 04:02:00,49.0,48.0,29.90,SW,225,0.0,0.0,97,0.00,,,0.03,,2013-05-07 08:02:00,
2013-05-07 04:11:00,49.0,48.0,29.90,SW,225,0.0,0.0,97,0.00,,,0.03,,2013-05-07 08:11:00,
2013-05-07 04:21:00,49.0,48.0,29.90,SW,225,0.0,0.0,97,0.00,,,0.03,,2013-05-07 08:21:00,
2013-05-07 04:32:00,49.0,48.0,29.90,SW,225,0.0,0.0,97,0.00,,,0.03,,2013-05-07 08:32:00,
2013-05-07 04:42:00,49.0,48.0,29.90,SW,225,0.0,0.0,97,0.00,,,0.03,,2013-05-07 08:42:00,
2013-05-07 04:52:00,49.0,48.0,29.91,SW,225,0.0,0.0,97,0.00,,,0.03,,2013-05-07 08:52:00,
2013-05-07 05:01:00,49.0,48.0,29.91,SW,225,0.0,0.0,97,0.00,,,0.03,,2013-05-07 09:01:00,
2013-05-07 05:11:00,49.0,48.0,29.91,SW,225,0.0,0.0,97,0.00,,,0.03,,2013-05-07 09:11:00,
2013-05-07 05:22:00,49.0,48.0,29.91,SW,225,0.0,0.0,97,0.00,,,0.03,,2013-05-07 09:22:00,
2013-05-07 05:33:00,48.0,47.0,29.91,SW,225,0.0,0.0,97,0.00,,,0.03,,2013-05-07 09:33:00,
2013-05-07 05:42:00,48.0,47.0,29.91,SW,225,0.0,0.0,97,0.00,,,0.03,,2013-05-07 09:42:00,
2013-05-07 05:52:00,49.0,48.0,29.92,SW,225,0.0,0.0,98,0.00,,,0.03,,2013-05-07 09:52:00,
2013-05-07 06:03:00,49.0,48.0,29.92,SW,225,0.0,0.0,98,0.00,,,0.03,,2013-05-07 10:03:00,
2013-05-07 06:12:00,49.0,48.0,29.92,SW,225,0.0,0.0,98,0.00,,,0.03,,2013-05-07 10:12:00,
2013-05-07 06:23:00,48.0,47.0,29.93,SW,225,0.0,0.0,98,0.00,,,0.02,,2013-05-07 10:23:00,
2013-05-07 06:32:00,48.0,47.0,29.93,SW,225,0.0,0.0,98,0.00,,,0.02,,2013-05-07 10:32:00,
2013-05-07 06:42:00,48.0,47.0,29.93,SW,225,0.0,0.0,98,0.00,,,0.02,,2013-05-07 10:42:00,
2013-05-07 06:52:00,48.0,47.0,29.93,SW,225,0.0,0.0,98,0.00,,,0.02,,2013-05-07 10:52:00,
2013-05-07 07:02:00,48.0,47.0,29.94,SSE,164,0.0,0.0,98,0.00,,,0.02,,2013-05-07 11:02:00,
2013-05-07 07:12:00,48.0,47.0,29.94,SSE,164,0.0,0.0,98,0.00,,,0.02,,2013-05-07 11:12:00,
2013-05-07 07:22:00,48.0,47.0,29.95,SSE,165,0.0,0.0,98,0.00,,,0.02,,2013-05-07 11:22:00,
2013-05-07 07:32:00,48.0,47.0,29.95,NE,53,0.0,0.0,98,0.00,,,0.02,,2013-05-07 11:32:00,
2013-05-07 07:42:00,48.0,47.0,29.95,NE,53,0.0,0.0,98,0.00,,,0.02,,2013-05-07 11:42:00,
2013-05-07 07:52:00,48.0,47.0,29.96,NE,53,0.0,0.0,98,0.00,,,0.02,,2013-05-07 11:52:00,
2013-05-07 08:02:00,48.0,47.0,29.96,WNW,287,0.0,0.0,98,0.00,,,0.02,,2013-05-07 12:02:00,
2013-05-07 08:11:00,48.0,47.0,29.96,WNW,287,0.0,0.0,98,0.00,,,0.02,,2013-05-07 12:11:00,
2013-05-07 08:22:00,48.0,47.0,29.97,WNW,287,0.0,0.0,98,0.00,,,0.02,,2013-05-07 12:22:00,
2013-05-07 08:32:00,49.0,48.0,29.97,WNW,286,0.0,0.0,98,0.00,,,0.02,,2013-05-07 12:32:00,
2013-05-07 08:42:00,49.0,48.0,29.97,WNW,286,0.0,0.0,98,0.00,,,0.02,,2013-05-07 12:42:00,
2013-05-07 08:52:00,49.0,48.0,29.97,NW,308,0.0,0.0,98,0.00,,,0.02,,2013-05-07 12:52:00,
2013-05-07 09:02:00,49.0,48.0,29.98,NW,308,0.0,0.0,98,0.00,,,0.02,,2013-05-07 13:02:00,
2013-05-07 09:11:00,49.0,48.0,29.98,NW,308,0.0,0.0,98,0.00,,,0.02,,2013-05-07 13:11:00,
2013-05-07 09:22:00,49.0,48.0,29.98,NNW,348,0.0,0.0,98,0.00,,,0.02,,2013-05-07 13:22:00,
2013-05-07 09:32:00,50.0,49.0,29.98,NNW,341,0.0,0.0,98,0.00,,,0.02,,2013-05-07 13:32:00,
2013-05-07 09:42:00,50.0,49.0,29.98,NNW,341,0.0,0.0,98,0.00,,,0.02,,2013-05-07 13:42:00,
2013-05-07 09:52:00,50.0,49.0,29.98,NNW,336,0.0,0.0,98,0.00,,,0.02,,2013-05-07 13:52:00,
2013-05-07 10:02:00,51.0,50.0,29.98,NNW,336,0.0,1.0,97,0.00,,,0.02,,2013-05-07 14:02:00,
2013-05-07 10:11:00,51.0,50.0,29.98,NNW,336,0.0,1.0,97,0.00,,,0.02,,2013-05-07 14:11:00,
2013-05-07 10:21:00,52.0,51.0,29.98,NW,317,0.0,2.0,96,0.00,,,0.02,,2013-05-07 14:21:00,
2013-05-07 10:32:00,53.0,50.0,29.98,NW,317,0.0,1.0,91,0.00,,,0.02,,2013-05-07 14:32:00,
2013-05-07 10:42:00,53.0,50.0,29.98,NW,317,0.0,1.0,91,0.00,,,0.02,,2013-05-07 14:42:00,
2013-05-07 10:52:00,54.0,50.0,29.99,WNW,284,0.0,1.0,86,0.00,,,0.02,,2013-05-07 14:52:00,
2013-05-07 11:01:00,55.0,49.0,29.99,WNW,284,0.0,1.0,81,0.00,,,0.02,,2013-05-07 15:01:00,
2013-05-07 11:12:00,55.0,49.0,29.99,WNW,284,0.0,1.0,81,0.00,,,0.02,,2013-05-07 15:12:00,
2013-05-07 11:21:00,57.0,48.0,29.98,NNW,338,0.0,1.0,73,0.00,,,0.02,,2013-05-07 15:21:00,
2013-05-07 11:33:00,58.0,49.0,29.99,West,262,0.0,1.0,72,0.00,,,0.02,,2013-05-07 15:33:00,
2013-05-07 11:42:00,58.0,49.0,29.99,West,262,0.0,1.0,72,0.00,,,0.02,,2013-05-07 15:42:00,
2013-05-07 11:53:00,58.0,49.0,29.99,West,262,0.0,1.0,72,0.00,,,0.02,,2013-05-07 15:53:00,
2013-05-07 12:03:00,62.0,53.0,29.98,SW,228,0.0,2.0,73,0.00,,,0.02,,2013-05-07 16:03:00,
2013-05-07 12:12:00,62.0,53.0,29.98,SW,228,0.0,2.0,73,0.00,,,0.02,,2013-05-07 16:12:00,
2013-05-07 12:22:00,62.0,51.0,29.98,SW,231,0.0,3.0,67,0.00,,,0.01,,2013-05-07 16:22:00,
2013-05-07 12:32:00,63.0,51.0,29.98,WSW,252,0.0,1.0,66,0.00,,,0.01,,2013-05-07 16:32:00,
2013-05-07 12:42:00,63.0,51.0,29.98,WSW,252,0.0,1.0,66,0.00,,,0.01,,2013-05-07 16:42:00,
2013-05-07 12:52:00,63.0,51.0,29.98,WSW,252,0.0,1.0,66,0.00,,,0.01,,2013-05-07 16:52:00,
2013-05-07 13:01:00,64.0,51.0,29.98,West,265,0.0,3.0,63,0.00,,,0.01,,2013-05-07 17:01:00,
2013-05-07 13:12:00,64.0,51.0,29.98,West,265,0.0,3.0,63,0.00,,,0.01,,2013-05-07 17:12:00,
2013-05-07 13:21:00,65.0,52.0,29.98,West,281,0.0,2.0,63,0.00,,,0.01,,2013-05-07 17:21:00,
2013-05-07 13:32:00,65.0,52.0,29.97,WNW,293,0.0,1.0,62,0.00,,,0.01,,2013-05-07 17:32:00,
2013-05-07 13:41:00,66.0,53.0,29.96,WNW,282,0.0,1.0,63,0.00,,,0.01,,2013-05-07 17:41:00,
2013-05-07 13:53:00,66.0,53.0,29.96,WNW,282,0.0,1.0,63,0.00,,,0.01,,2013-05-07 17:53:00,
2013-05-07 14:01:00,67.0,52.0,29.96,NW,306,0.0,3.0,59,0.00,,,0.01,,2013-05-07 18:01:00,
2013-05-07 14:11:00,67.0,52.0,29.96,NW,306,0.0,3.0,59,0.00,,,0.01,,2013-05-07 18:11:00,
2013-05-07 14:21:00,67.0,50.0,29.96,NNW,343,0.0,2.0,54,0.00,,,0.01,,2013-05-07 18:21:00,
2013-05-07 14:31:00,68.0,53.0,29.96,West,259,1.0,5.0,59,0.00,,,0.01,,2013-05-07 18:31:00,
2013-05-07 14:42:00,68.0,53.0,29.96,West,259,1.0,5.0,59,0.00,,,0.01,,2013-05-07 18:42:00,
2013-05-07 14:52:00,68.0,54.0,29.96,WNW,294,2.0,5.0,61,0.00,,,0.01,,2013-05-07 18:52:00,
2013-05-07 15:02:00,67.0,52.0,29.96,West,262,0.0,1.0,59,0.00,,,0.01,,2013-05-07 19:02:00,
2013-05-07 15:11:00,67.0,52.0,29.96,West,262,0.0,1.0,59,0.00,,,0.01,,2013-05-07 19:11:00,
2013-05-07 15:21:00,68.0,54.0,29.96,South,172,0.0,3.0,61,0.00,,,0.01,,2013-05-07 19:21:00,
2013-05-07 15:32:00,69.0,53.0,29.95,South,173,0.0,1.0,57,0.00,,,0.01,,2013-05-07 19:32:00,
2013-05-07 15:42:00,69.0,53.0,29.95,South,173,0.0,1.0,57,0.00,,,0.01,,2013-05-07 19:42:00,
2013-05-07 15:52:00,69.0,53.0,29.94,West,273,1.0,3.0,57,0.00,,,0.01,,2013-05-07 19:52:00,
2013-05-07 16:02:00,69.0,53.0,29.94,WNW,301,1.0,2.0,57,0.00,,,0.01,,2013-05-07 20:02:00,
2013-05-07 16:12:00,69.0,53.0,29.94,WNW,301,1.0,2.0,57,0.00,,,0.01,,2013-05-07 20:12:00,
2013-05-07 16:22:00,69.0,50.0,29.93,West,259,0.0,3.0,51,0.00,,,0.01,,2013-05-07 20:22:00,
2013-05-07 16:32:00,70.0,50.0,29.93,West,279,1.0,3.0,49,0.00,,,0.01,,2013-05-07 20:32:00,
2013-05-07 16:42:00,70.0,50.0,29.93,West,279,1.0,3.0,49,0.00,,,0.01,,2013-05-07 20:42:00,
2013-05-07 16:52:00,70.0,50.0,29.92,WNW,288,0.0,3.0,49,0.00,,,0.01,,2013-05-07 20:52:00,
2013-05-07 17:01:00,69.0,56.0,29.92,WNW,288,0.0,1.0,63,0.00,,,0.01,,2013-05-07 21:01:00,
2013-05-07 17:11:00,69.0,56.0,29.92,WNW,288,0.0,1.0,63,0.00,,,0.01,,2013-05-07 21:11:00,
2013-05-07 17:22:00,71.0,49.0,29.92,WSW,239,2.0,4.0,46,0.00,,,0.01,,2013-05-07 21:22:00,
2013-05-07 17:32:00,71.0,54.0,29.92,WNW,284,0.0,2.0,54,0.00,,,0.01,,2013-05-07 21:32:00,
2013-05-07 17:42:00,71.0,54.0,29.92,WNW,284,0.0,2.0,54,0.00,,,0.01,,2013-05-07 21:42:00,
2013-05-07 17:53:00,68.0,55.0,29.92,SSE,160,0.0,0.0,64,0.00,,,0.01,,2013-05-07 21:53:00,
2013-05-07 18:02:00,69.0,55.0,29.93,West,259,0.0,0.0,62,0.00,,,0.01,,2013-05-07 22:02:00,
2013-05-07 18:13:00,69.0,55.0,29.93,West,259,0.0,0.0,62,0.00,,,0.01,,2013-05-07 22:13:00,
2013-05-07 18:22:00,71.0,52.0,29.93,WSW,250,0.0,2.0,51,0.00,,,0.01,,2013-05-07 22:22:00,
2013-05-07 18:33:00,70.0,56.0,29.93,West,277,0.0,1.0,61,0.00,,,0.01,,2013-05-07 22:33:00,
2013-05-07 18:42:00,70.0,56.0,29.93,West,277,0.0,1.0,61,0.00,,,0.01,,2013-05-07 22:42:00,
2013-05-07 18:52:00,67.0,55.0,29.93,ENE,59,0.0,0.0,65,0.00,,,0.01,,2013-05-07 22:52:00,
2013-05-07 19:02:00,64.0,56.0,29.95,NW,304,1.0,4.0,75,0.01,,,0.02,,2013-05-07 23:02:00,
2013-05-07 19:12:00,64.0,56.0,29.95,NW,304,1.0,4.0,75,0.01,,,0.02,,2013-05-07 23:12:00,
2013-05-07 19:21:00,60.0,57.0,29.94,NW,304,0.0,0.0,90,0.06,,,0.07,,2013-05-07 23:21:00,
2013-05-07 19:32:00,59.0,57.0,29.94,NNW,327,0.0,0.0,93,0.06,,,0.07,,2013-05-07 23:32:00,
2013-05-07 19:42:00,58.0,56.0,29.95,NNW,327,0.0,0.0,94,0.07,,,0.08,,2013-05-07 23:42:00,
2013-05-07 19:52:00,58.0,56.0,29.95,NNW,327,0.0,0.0,94,0.07,,,0.08,,2013-05-07 23:52:00,
2013-05-07 20:02:00,58.0,57.0,29.94,NNW,327,0.0,0.0,95,0.07,,,0.09,,2013-05-08 00:02:00,
2013-05-07 20:12:00,58.0,57.0,29.94,NNW,327,0.0,0.0,95,0.07,,,0.09,,2013-05-08 00:12:00,
2013-05-07 20:22:00,58.0,57.0,29.95,NNW,327,0.0,0.0,95,0.02,,,0.09,,2013-05-08 00:22:00,
2013-05-07 20:32:00,58.0,57.0,29.95,NNW,327,0.0,0.0,95,0.02,,,0.09,,2013-05-08 00:32:00,
2013-05-07 20:42:00,57.0,56.0,29.96,NNW,327,0.0,0.0,95,0.01,,,0.09,,2013-05-08 00:42:00,
2013-05-07 20:52:00,57.0,56.0,29.96,NNW,327,0.0,0.0,95,0.01,,,0.09,,2013-05-08 00:52:00,
2013-05-07 21:02:00,58.0,57.0,29.97,NNW,327,0.0,1.0,96,0.01,,,0.10,,2013-05-08 01:02:00,
2013-05-07 21:11:00,58.0,57.0,29.97,NNW,327,0.0,1.0,96,0.01,,,0.10,,2013-05-08 01:11:00,
2013-05-07 21:22:00,58.0,57.0,29.98,NNW,327,0.0,1.0,96,0.01,,,0.10,,2013-05-08 01:22:00,
2013-05-07 21:32:00,58.0,57.0,29.98,NNW,327,0.0,0.0,96,0.01,,,0.10,,2013-05-08 01:32:00,
2013-05-07 21:42:00,58.0,57.0,29.98,NNW,327,0.0,0.0,96,0.01,,,0.10,,2013-05-08 01:42:00,
2013-05-07 21:52:00,58.0,57.0,29.98,NNW,327,0.0,0.0,96,0.01,,,0.10,,2013-05-08 01:52:00,
2013-05-07 22:02:00,58.0,57.0,29.99,NNW,327,0.0,0.0,97,0.00,,,0.10,,2013-05-08 02:02:00,
2013-05-07 22:12:00,58.0,57.0,29.99,NNW,327,0.0,0.0,97,0.00,,,0.10,,2013-05-08 02:12:00,
2013-05-07 22:22:00,57.0,56.0,29.99,NNW,327,0.0,0.0,97,0.00,,,0.09,,2013-05-08 02:22:00,
2013-05-07 22:32:00,57.0,56.0,29.99,NNW,327,0.0,0.0,97,0.00,,,0.09,,2013-05-08 02:32:00,
2013-05-07 22:42:00,57.0,56.0,30.00,NNW,327,0.0,0.0,97,0.00,,,0.09,,2013-05-08 02:42:00,
2013-05-07 22:52:00,57.0,56.0,30.00,NNW,327,0.0,0.0,97,0.00,,,0.09,,2013-05-08 02:52:00,
2013-05-07 23:02:00,56.0,55.0,30.01,NNW,327,0.0,0.0,97,0.00,,,0.09,,2013-05-08 03:02:00,
2013-05-07 23:11:00,56.0,55.0,30.01,NNW,327,0.0,0.0,97,0.00,,,0.09,,2013-05-08 03:11:00,
2013-05-07 23:22:00,56.0,55.0,30.01,NNW,327,0.0,0.0,97,0.00,,,0.09,,2013-05-08 03:22:00,
2013-05-07 23:33:00,56.0,55.0,30.01,NNW,327,0.0,0.0,97,0.00,,,0.09,,2013-05-08 03:33:00,
2013-05-07 23:43:00,56.0,55.0,30.01,NNW,327,0.0,0.0,97,0.00,,,0.09,,2013-05-08 03:43:00,
2013-05-07 23:52:00,56.0,55.0,30.01,NNW,327,0.0,0.0,97,0.00,,,0.09,,2013-05-08 03:52:00,